TimeCST,TemperatureF,Dew PointF,Humidity,Sea Level PressureIn,VisibilityMPH,Wind Direction,Wind SpeedMPH,Gust SpeedMPH,PrecipitationIn,Events,Conditions,WindDirDegrees,DateUTC
12:09 AM,11.7,10.2,94,30.11,5.0,Calm,Calm,-,N/A,,Clear,0,2012-12-14 06:09:00
12:29 AM,13.5,12.4,95,30.10,4.0,Calm,Calm,-,N/A,,Clear,0,2012-12-14 06:29:00
12:49 AM,13.6,12.4,95,30.10,3.0,Calm,Calm,-,N/A,,Clear,0,2012-12-14 06:49:00
1:09 AM,13.1,11.8,95,30.10,3.0,Calm,Calm,-,N/A,,Clear,0,2012-12-14 07:09:00
1:29 AM,9.7,8.1,93,30.10,5.0,Calm,Calm,-,N/A,,Clear,0,2012-12-14 07:29:00
1:48 AM,9.7,8.2,94,30.10,5.0,Calm,Calm,-,N/A,,Clear,0,2012-12-14 07:48:00
2:09 AM,14.0,13.1,96,30.10,2.5,Calm,Calm,-,N/A,,Clear,0,2012-12-14 08:09:00
2:29 AM,12.9,11.7,95,30.10,1.8,ENE,4.6,-,N/A,,Mist,60,2012-12-14 08:29:00
2:48 AM,14.0,13.1,96,30.10,4.0,East,4.6,-,N/A,,Clear,90,2012-12-14 08:48:00
3:09 AM,13.3,12.2,95,30.09,4.0,East,4.6,-,N/A,,Clear,80,2012-12-14 09:09:00
3:29 AM,14.0,13.1,96,30.09,3.0,East,4.6,-,N/A,,Clear,90,2012-12-14 09:29:00
3:49 AM,16.7,15.8,96,30.08,4.0,East,4.6,-,N/A,,Clear,90,2012-12-14 09:49:00
4:09 AM,17.1,16.2,96,30.08,4.0,East,3.5,-,N/A,,Clear,90,2012-12-14 10:09:00
4:28 AM,13.1,11.7,94,30.08,4.0,Calm,Calm,-,N/A,,Clear,0,2012-12-14 10:28:00
4:48 AM,14.0,13.1,96,30.07,3.0,East,3.5,-,N/A,,Clear,100,2012-12-14 10:48:00
5:08 AM,11.7,10.2,94,30.07,3.0,Calm,Calm,-,N/A,,Clear,0,2012-12-14 11:08:00
5:29 AM,11.7,10.2,94,30.05,0.5,ESE,4.6,-,N/A,Fog,Light Freezing Fog,120,2012-12-14 11:29:00
5:48 AM,13.3,12.0,95,30.04,0.2,ESE,4.6,-,N/A,Fog,Light Freezing Fog,110,2012-12-14 11:48:00
6:09 AM,14.0,13.1,96,30.03,0.2,ESE,5.8,-,N/A,Fog,Light Freezing Fog,110,2012-12-14 12:09:00
6:28 AM,14.0,12.9,95,30.04,0.8,SSE,3.5,-,N/A,,Overcast,150,2012-12-14 12:28:00
6:48 AM,14.0,13.1,96,30.04,0.5,SE,3.5,-,N/A,Fog,Light Freezing Fog,130,2012-12-14 12:48:00
7:09 AM,14.0,12.9,95,30.03,0.2,ESE,3.5,-,N/A,Fog,Light Freezing Fog,120,2012-12-14 13:09:00
7:28 AM,14.0,13.1,96,30.03,0.2,Calm,Calm,-,N/A,Fog,Light Freezing Fog,0,2012-12-14 13:28:00
7:49 AM,14.0,12.9,95,30.03,0.2,Calm,Calm,-,N/A,Fog,Light Freezing Fog,0,2012-12-14 13:49:00
8:09 AM,14.0,12.9,95,30.03,0.2,Calm,Calm,-,N/A,Fog,Light Freezing Fog,0,2012-12-14 14:09:00
8:29 AM,14.0,13.1,96,30.03,0.2,Calm,Calm,-,N/A,Fog,Light Freezing Fog,0,2012-12-14 14:29:00
8:48 AM,14.0,13.1,96,30.03,0.8,Calm,Calm,-,N/A,,Mostly Cloudy,0,2012-12-14 14:48:00
9:09 AM,16.5,15.4,96,30.03,1.8,Calm,Calm,-,N/A,,Mist,0,2012-12-14 15:09:00
9:28 AM,19.2,18.5,97,30.03,3.0,Calm,Calm,-,N/A,,Clear,0,2012-12-14 15:28:00
9:48 AM,19.2,18.5,97,30.02,4.0,East,4.6,-,N/A,,Clear,90,2012-12-14 15:48:00
10:09 AM,20.1,19.8,99,30.01,4.0,East,4.6,-,N/A,,Clear,90,2012-12-14 16:09:00
10:29 AM,22.1,21.7,99,30.01,4.0,East,3.5,-,N/A,,Clear,80,2012-12-14 16:29:00
10:49 AM,23.2,23.0,99,30.00,5.0,East,4.6,-,N/A,,Clear,80,2012-12-14 16:49:00
11:09 AM,25.2,25.0,99,29.98,5.0,East,5.8,-,N/A,,Clear,80,2012-12-14 17:09:00
11:29 AM,26.6,26.6,100,29.98,5.0,East,4.6,-,N/A,,Clear,80,2012-12-14 17:29:00
11:49 AM,29.1,29.1,100,29.97,7.0,East,6.9,-,N/A,,Clear,90,2012-12-14 17:49:00
12:08 PM,29.3,29.3,100,29.96,7.0,East,6.9,-,N/A,,Clear,90,2012-12-14 18:08:00
12:28 PM,27.5,27.5,100,29.95,7.0,East,8.1,-,N/A,,Clear,90,2012-12-14 18:28:00
12:49 PM,29.3,29.3,100,29.94,7.0,East,9.2,-,N/A,,Clear,90,2012-12-14 18:49:00
1:09 PM,29.3,29.1,99,29.92,7.0,East,9.2,-,N/A,,Clear,90,2012-12-14 19:09:00
1:29 PM,30.2,27.5,90,29.91,7.0,East,9.2,-,N/A,,Clear,80,2012-12-14 19:29:00
1:48 PM,31.8,27.1,83,29.90,10.0,ENE,6.9,-,N/A,,Clear,70,2012-12-14 19:48:00
2:08 PM,34.0,28.6,81,29.89,10.0,ENE,9.2,-,N/A,,Clear,70,2012-12-14 20:08:00
2:28 PM,34.0,28.4,80,29.87,10.0,ENE,10.4,-,N/A,,Clear,70,2012-12-14 20:28:00
2:49 PM,34.0,28.8,81,29.87,10.0,ENE,10.4,-,N/A,,Clear,70,2012-12-14 20:49:00
3:09 PM,34.0,28.4,80,29.86,10.0,ENE,11.5,17.3,N/A,,Clear,70,2012-12-14 21:09:00
3:29 PM,34.0,28.4,80,29.86,10.0,ENE,11.5,-,N/A,,Clear,70,2012-12-14 21:29:00
4:08 PM,34.0,28.8,81,29.85,10.0,East,10.4,-,N/A,,Clear,80,2012-12-14 22:08:00
4:28 PM,34.0,28.9,82,29.84,10.0,ENE,10.4,-,N/A,,Clear,70,2012-12-14 22:28:00
4:49 PM,34.0,28.8,81,29.84,10.0,East,11.5,17.3,N/A,,Clear,80,2012-12-14 22:49:00
5:09 PM,34.0,28.9,82,29.83,10.0,ENE,12.7,17.3,N/A,,Clear,70,2012-12-14 23:09:00
5:28 PM,34.0,29.1,82,29.83,10.0,East,11.5,-,N/A,,Clear,80,2012-12-14 23:28:00
5:48 PM,34.0,29.3,83,29.83,10.0,East,11.5,-,N/A,,Clear,80,2012-12-14 23:48:00
6:09 PM,34.0,29.3,83,29.83,10.0,East,11.5,-,N/A,,Clear,90,2012-12-15 00:09:00
6:28 PM,34.0,29.3,83,29.83,10.0,East,11.5,-,N/A,,Clear,90,2012-12-15 00:28:00
6:48 PM,34.0,29.5,84,29.82,10.0,East,12.7,-,N/A,,Clear,90,2012-12-15 00:48:00
7:09 PM,34.0,30.0,85,29.81,10.0,East,15.0,-,N/A,,Clear,80,2012-12-15 01:09:00
7:28 PM,34.0,29.8,85,29.81,10.0,East,12.7,-,N/A,,Clear,80,2012-12-15 01:28:00
7:49 PM,34.0,29.8,85,29.80,10.0,East,12.7,-,N/A,,Clear,90,2012-12-15 01:49:00
8:09 PM,34.0,30.2,86,29.80,10.0,East,11.5,-,N/A,,Clear,90,2012-12-15 02:09:00
8:29 PM,34.7,30.9,86,29.79,10.0,East,11.5,-,N/A,,Clear,90,2012-12-15 02:29:00
8:48 PM,35.2,31.5,86,29.78,10.0,East,11.5,-,N/A,,Clear,90,2012-12-15 02:48:00
9:07 PM,36.3,32.2,85,29.78,10.0,East,12.7,-,N/A,,Clear,90,2012-12-15 03:07:00
9:29 PM,36.5,32.2,84,29.77,10.0,East,11.5,-,N/A,,Clear,90,2012-12-15 03:29:00
9:49 PM,36.5,32.4,85,29.77,10.0,East,10.4,-,N/A,,Scattered Clouds,100,2012-12-15 03:49:00
10:09 PM,36.5,32.4,85,29.77,10.0,East,11.5,-,N/A,,Mostly Cloudy,100,2012-12-15 04:09:00
10:28 PM,36.5,32.2,84,29.76,10.0,East,8.1,-,N/A,,Overcast,90,2012-12-15 04:28:00
10:49 PM,36.5,32.4,85,29.75,10.0,East,8.1,-,N/A,,Overcast,90,2012-12-15 04:49:00
11:08 PM,36.5,32.9,87,29.74,10.0,East,9.2,-,N/A,,Overcast,90,2012-12-15 05:08:00
11:28 PM,37.0,32.9,85,29.74,10.0,East,8.1,-,N/A,,Overcast,90,2012-12-15 05:28:00
11:49 PM,36.7,32.9,86,29.72,10.0,East,9.2,-,N/A,,Overcast,90,2012-12-15 05:49:00